{"data":{"norad_id":43706,"epoch":"2026-09-16T21:23:48.319008Z","epoch_age_seconds":329924,"freshness":"STALE","line1":"1 43706U 18093A   26259.89153147 -.00000007  00000+0  00000+0 0  9999","line2":"2 43706  54.1660 179.1872 0008397 303.8235 256.2060  1.86228478 53241","mean_motion":1.86228478,"eccentricity":0.0008397,"inclination_deg":54.166,"raan_deg":179.1872,"arg_perigee_deg":303.8235,"mean_anomaly_deg":256.206,"bstar":0,"rev_number":5324,"period_min":773.24371410048,"perigee_km":21504.870471676,"apogee_km":21551.736547868,"semimajor_km":27906.440509772,"source":"CELESTRAK","updated_at":"2026-09-20T09:00:46.711017Z"}}